Tracking 32968 objects as of 17-Jan-2026
HD Live streaming from Space Station
objects crossing your sky now

COSMOS 2499 DEB

Track COSMOS 2499 DEB now!
10-day predictions


NORAD ID: 56579
Int'l Code: 2014-028BN
Perigee: 1,220.4 km
Apogee: 1,443.6 km
Inclination: 82.3 °
Period: 112.1 minutes
Semi major axis: 7703 km
RCS: Unknown
Launch date: May 23, 2014
Source: Commonwealth of Independent States (former USSR) (CIS)
Launch site: PLESETSK MISSILE AND SPACE COMPLEX (PKMTR)

Note: This is SATELLITE DEBRIS
Your satellite tracking list
Your tracking list is empty




NASA's NSSDC Master Catalog

Two Line Element Set (TLE):
1 56579U 14028BN  26005.66543521  .00002669  00000-0  10554-1 0  9991
2 56579  82.2677 346.2427 0144877  25.7198 335.1017 12.84134711138203
Source of the keplerian elements: AFSPC